GFSWCAN_prec_precacc12_195.txt.gz
Total_Precipitation_Accumulation
0.04 0.02 0.02 0.02 0.05 0.04 0.00 0.00 0.00 0.01 0.02 0.07 0.20 0.30 0.32 0.34 0.31 0.29 0.39 0.16 0.08 0.31 0.57 0.27 0.14 0.15 0.15 0.09 0.20 0.27 0.17 0.20 0.14 0.10 0.10 0.12 0.08 0.06 0.03 0.02 0.01 0.03 0.04 0.04 0.04 0.04 0.01 0.00 0.00 0.00 0.00 0.00 0.00 0.00
0.02 0.01 0.01 0.03 0.05 0.03 0.00 0.00 0.00 0.01 0.01 0.03 0.10 0.18 0.22 0.21 0.18 0.13 0.29 0.16 0.07 0.16 0.44 0.23 0.17 0.09 0.04 0.02 0.02 0.05 0.03 0.04 0.03 0.04 0.04 0.02 0.01 0.02 0.02 0.05 0.02 0.02 0.00 0.00 0.00 0.00 0.00 0.00 0.00 0.00 0.00 0.00 0.00 0.00
0.01 0.01 0.02 0.04 0.04 0.04 0.00 0.00 0.01 0.02 0.01 0.02 0.05 0.10 0.13 0.17 0.24 0.16 0.23 0.17 0.13 0.19 0.42 0.31 0.19 0.07 0.03 0.01 0.01 0.06 0.05 0.00 0.00 0.00 0.00 0.00 0.01 0.01 0.02 0.01 0.01 0.00 0.00 0.00 0.00 0.00 0.00 0.00 0.00 0.00 0.00 0.00 0.00 0.00
0.01 0.01 0.03 0.04 0.03 0.04 0.02 0.01 0.01 0.02 0.02 0.02 0.03 0.05 0.06 0.06 0.10 0.09 0.16 0.18 0.12 0.13 0.39 0.47 0.15 0.08 0.04 0.02 0.01 0.01 0.01 0.00 0.00 0.00 0.00 0.00 0.00 0.00 0.00 0.00 0.00 0.00 0.00 0.00 0.00 0.00 0.00 0.00 0.00 0.00 0.00 0.00 0.00 0.00
0.01 0.02 0.03 0.04 0.05 0.05 0.03 0.02 0.01 0.03 0.02 0.02 0.03 0.03 0.03 0.03 0.02 0.01 0.01 0.02 0.01 0.01 0.16 0.32 0.11 0.04 0.03 0.02 0.00 0.00 0.00 0.00 0.00 0.00 0.01 0.01 0.00 0.00 0.00 0.00 0.00 0.00 0.00 0.00 0.00 0.00 0.00 0.00 0.00 0.00 0.00 0.00 0.00 0.00
0.03 0.03 0.03 0.04 0.05 0.04 0.04 0.02 0.03 0.03 0.02 0.02 0.03 0.03 0.04 0.01 0.00 0.01 0.04 0.02 0.00 0.00 0.01 0.13 0.20 0.08 0.04 0.01 0.00 0.00 0.00 0.00 0.01 0.01 0.01 0.00 0.00 0.00 0.00 0.00 0.00 0.00 0.00 0.00 0.00 0.00 0.00 0.00 0.00 0.00 0.00 0.00 0.00 0.00
0.04 0.04 0.06 0.08 0.09 0.07 0.05 0.05 0.05 0.03 0.02 0.03 0.04 0.06 0.03 0.01 0.02 0.01 0.03 0.02 0.00 0.00 0.00 0.05 0.14 0.13 0.04 0.02 0.07 0.01 0.01 0.02 0.03 0.02 0.01 0.01 0.01 0.00 0.00 0.00 0.00 0.00 0.00 0.00 0.00 0.00 0.00 0.00 0.00 0.00 0.00 0.00 0.00 0.00
0.03 0.05 0.08 0.12 0.12 0.11 0.10 0.06 0.04 0.04 0.06 0.07 0.07 0.05 0.04 0.06 0.06 0.01 0.00 0.00 0.00 0.00 0.00 0.03 0.14 0.11 0.03 0.06 0.14 0.04 0.03 0.02 0.02 0.03 0.02 0.01 0.02 0.02 0.01 0.00 0.00 0.00 0.00 0.00 0.00 0.00 0.01 0.01 0.01 0.00 0.00 0.01 0.01 0.01
0.01 0.03 0.05 0.04 0.04 0.05 0.04 0.04 0.06 0.08 0.13 0.13 0.08 0.04 0.07 0.15 0.05 0.01 0.00 0.00 0.00 0.00 0.00 0.01 0.04 0.09 0.05 0.07 0.08 0.07 0.08 0.06 0.05 0.03 0.02 0.01 0.01 0.02 0.00 0.00 0.00 0.00 0.01 0.01 0.00 0.00 0.00 0.01 0.02 0.02 0.02 0.03 0.03 0.03
0.02 0.01 0.02 0.02 0.03 0.03 0.04 0.07 0.07 0.13 0.11 0.01 0.01 0.03 0.14 0.14 0.01 0.01 0.02 0.00 0.00 0.00 0.01 0.06 0.07 0.06 0.06 0.05 0.06 0.06 0.09 0.09 0.03 0.02 0.02 0.02 0.00 0.00 0.00 0.00 0.00 0.00 0.00 0.00 0.01 0.01 0.01 0.01 0.02 0.02 0.02 0.00 0.01 0.05
0.10 0.08 0.07 0.10 0.16 0.19 0.21 0.23 0.25 0.18 0.06 0.03 0.02 0.08 0.11 0.03 0.03 0.01 0.01 0.01 0.00 0.01 0.02 0.08 0.10 0.06 0.06 0.12 0.08 0.08 0.07 0.06 0.04 0.04 0.03 0.02 0.01 0.02 0.00 0.00 0.00 0.00 0.01 0.01 0.01 0.01 0.01 0.01 0.01 0.01 0.01 0.01 0.07 0.13
0.10 0.09 0.16 0.19 0.22 0.25 0.23 0.19 0.13 0.05 0.02 0.01 0.02 0.03 0.02 0.01 0.01 0.00 0.00 0.00 0.02 0.06 0.02 0.06 0.09 0.11 0.11 0.12 0.13 0.05 0.04 0.01 0.06 0.05 0.04 0.01 0.04 0.02 0.01 0.00 0.00 0.01 0.03 0.03 0.02 0.02 0.01 0.02 0.03 0.09 0.08 0.04 0.02 0.02
0.08 0.06 0.07 0.12 0.13 0.13 0.11 0.06 0.01 0.00 0.00 0.03 0.02 0.00 0.01 0.00 0.01 0.03 0.06 0.05 0.11 0.05 0.05 0.05 0.05 0.08 0.10 0.08 0.07 0.04 0.02 0.04 0.05 0.04 0.02 0.05 0.03 0.00 0.00 0.02 0.02 0.01 0.03 0.05 0.07 0.11 0.12 0.08 0.05 0.03 0.02 0.03 0.01 0.01
0.04 0.05 0.05 0.04 0.08 0.06 0.01 0.00 0.00 0.00 0.05 0.07 0.03 0.01 0.03 0.07 0.14 0.13 0.18 0.15 0.10 0.04 0.03 0.05 0.06 0.07 0.11 0.08 0.03 0.02 0.03 0.04 0.04 0.03 0.06 0.10 0.00 0.00 0.00 0.01 0.01 0.00 0.00 0.00 0.01 0.01 0.00 0.00 0.00 0.00 0.00 0.00 0.00 0.00
0.00 0.01 0.01 0.02 0.00 0.00 0.00 0.00 0.00 0.01 0.07 0.04 0.02 0.05 0.10 0.06 0.03 0.01 0.03 0.03 0.03 0.03 0.04 0.05 0.04 0.05 0.04 0.02 0.02 0.02 0.01 0.01 0.03 0.13 0.19 0.14 0.00 0.00 0.00 0.00 0.00 0.00 0.00 0.00 0.00 0.00 0.00 0.00 0.00 0.00 0.00 0.00 0.00 0.00
0.00 0.00 0.00 0.00 0.00 0.00 0.00 0.00 0.00 0.00 0.01 0.02 0.02 0.03 0.01 0.01 0.00 0.00 0.01 0.01 0.01 0.03 0.07 0.10 0.06 0.04 0.01 0.01 0.00 0.01 0.02 0.04 0.18 0.15 0.04 0.07 0.03 0.00 0.00 0.00 0.00 0.00 0.00 0.00 0.00 0.00 0.00 0.00 0.00 0.00 0.00 0.00 0.00 0.00
0.00 0.00 0.00 0.00 0.00 0.00 0.00 0.00 0.02 0.00 0.00 0.01 0.01 0.00 0.00 0.01 0.01 0.00 0.01 0.03 0.01 0.02 0.10 0.14 0.06 0.05 0.05 0.02 0.01 0.01 0.04 0.14 0.05 0.02 0.00 0.00 0.00 0.00 0.00 0.00 0.00 0.00 0.00 0.00 0.00 0.00 0.00 0.00 0.00 0.00 0.00 0.00 0.00 0.00
0.00 0.00 0.00 0.00 0.00 0.00 0.00 0.01 0.03 0.00 0.00 0.00 0.01 0.01 0.00 0.00 0.00 0.00 0.00 0.02 0.03 0.03 0.09 0.16 0.15 0.10 0.07 0.03 0.04 0.10 0.09 0.01 0.00 0.00 0.00 0.00 0.00 0.00 0.00 0.00 0.00 0.00 0.00 0.00 0.00 0.00 0.00 0.00 0.00 0.00 0.00 0.00 0.00 0.00
0.00 0.00 0.00 0.00 0.00 0.00 0.00 0.00 0.00 0.00 0.01 0.01 0.00 0.00 0.00 0.00 0.00 0.00 0.00 0.00 0.02 0.04 0.13 0.15 0.08 0.04 0.06 0.09 0.14 0.06 0.02 0.00 0.00 0.00 0.00 0.00 0.00 0.00 0.00 0.00 0.00 0.00 0.00 0.00 0.00 0.00 0.00 0.00 0.00 0.00 0.00 0.00 0.00 0.00
0.00 0.00 0.00 0.00 0.00 0.00 0.00 0.01 0.02 0.01 0.02 0.04 0.02 0.01 0.01 0.01 0.01 0.01 0.01 0.01 0.00 0.01 0.03 0.04 0.02 0.05 0.10 0.16 0.13 0.05 0.00 0.00 0.01 0.05 0.03 0.00 0.00 0.00 0.00 0.00 0.00 0.00 0.00 0.00 0.00 0.00 0.00 0.00 0.00 0.00 0.00 0.00 0.00 0.00
0.01 0.00 0.00 0.00 0.00 0.00 0.00 0.02 0.03 0.01 0.02 0.02 0.04 0.05 0.03 0.02 0.03 0.02 0.01 0.03 0.06 0.06 0.04 0.01 0.02 0.04 0.03 0.04 0.02 0.01 0.01 0.01 0.04 0.03 0.01 0.01 0.00 0.00 0.00 0.00 0.01 0.00 0.01 0.01 0.01 0.01 0.00 0.01 0.01 0.00 0.00 0.00 0.00 0.00
0.02 0.01 0.01 0.01 0.00 0.00 0.00 0.00 0.01 0.07 0.05 0.04 0.04 0.05 0.05 0.03 0.02 0.03 0.05 0.06 0.03 0.01 0.01 0.00 0.02 0.04 0.01 0.01 0.00 0.00 0.00 0.01 0.03 0.04 0.04 0.02 0.01 0.00 0.01 0.01 0.01 0.01 0.01 0.01 0.01 0.03 0.02 0.02 0.00 0.00 0.00 0.00 0.00 0.00
0.00 0.01 0.01 0.01 0.00 0.00 0.00 0.00 0.00 0.01 0.05 0.05 0.06 0.07 0.05 0.06 0.05 0.03 0.04 0.02 0.01 0.00 0.00 0.01 0.01 0.01 0.00 0.00 0.00 0.00 0.00 0.01 0.01 0.01 0.02 0.03 0.02 0.01 0.01 0.00 0.00 0.00 0.00 0.01 0.02 0.02 0.03 0.01 0.00 0.01 0.00 0.00 0.00 0.00
0.00 0.00 0.00 0.00 0.01 0.01 0.00 0.00 0.01 0.01 0.03 0.04 0.06 0.07 0.06 0.10 0.13 0.13 0.05 0.01 0.02 0.01 0.01 0.03 0.04 0.03 0.02 0.01 0.00 0.00 0.00 0.00 0.00 0.00 0.01 0.02 0.03 0.04 0.04 0.01 0.00 0.00 0.00 0.01 0.01 0.02 0.01 0.01 0.01 0.00 0.00 0.00 0.00 0.01
0.00 0.00 0.00 0.00 0.00 0.01 0.01 0.00 0.00 0.02 0.03 0.02 0.04 0.06 0.10 0.13 0.17 0.12 0.06 0.07 0.09 0.04 0.03 0.03 0.05 0.07 0.07 0.06 0.03 0.01 0.00 0.00 0.01 0.01 0.00 0.01 0.03 0.02 0.03 0.02 0.02 0.01 0.01 0.02 0.02 0.02 0.02 0.01 0.01 0.00 0.00 0.01 0.01 0.00
0.00 0.00 0.00 0.00 0.00 0.00 0.01 0.01 0.01 0.01 0.01 0.02 0.03 0.02 0.02 0.06 0.08 0.09 0.08 0.08 0.07 0.06 0.05 0.06 0.07 0.07 0.08 0.10 0.12 0.12 0.05 0.00 0.01 0.02 0.02 0.00 0.01 0.05 0.02 0.01 0.03 0.02 0.01 0.01 0.03 0.05 0.05 0.04 0.03 0.02 0.01 0.01 0.01 0.01
0.00 0.00 0.00 0.00 0.00 0.00 0.00 0.00 0.01 0.01 0.02 0.03 0.02 0.02 0.03 0.06 0.07 0.04 0.02 0.01 0.02 0.02 0.01 0.02 0.02 0.04 0.08 0.07 0.07 0.09 0.06 0.04 0.05 0.07 0.04 0.01 0.01 0.01 0.03 0.02 0.02 0.02 0.00 0.00 0.01 0.03 0.05 0.06 0.06 0.05 0.05 0.04 0.01 0.00
0.00 0.00 0.00 0.00 0.00 0.00 0.00 0.00 0.00 0.00 0.01 0.00 0.01 0.01 0.03 0.03 0.04 0.02 0.01 0.01 0.01 0.01 0.01 0.02 0.02 0.03 0.04 0.05 0.04 0.04 0.04 0.04 0.07 0.06 0.05 0.07 0.05 0.02 0.01 0.01 0.00 0.00 0.00 0.00 0.01 0.01 0.01 0.02 0.04 0.07 0.09 0.08 0.06 0.03
0.00 0.00 0.00 0.00 0.00 0.00 0.00 0.00 0.00 0.00 0.00 0.00 0.00 0.00 0.00 0.01 0.00 0.00 0.00 0.01 0.01 0.03 0.03 0.03 0.03 0.04 0.05 0.05 0.05 0.05 0.05 0.07 0.09 0.08 0.05 0.04 0.05 0.04 0.02 0.02 0.01 0.01 0.00 0.00 0.00 0.00 0.00 0.01 0.01 0.02 0.03 0.06 0.08 0.10
0.00 0.00 0.00 0.00 0.00 0.00 0.00 0.00 0.00 0.00 0.00 0.00 0.00 0.00 0.00 0.00 0.00 0.00 0.00 0.00 0.01 0.01 0.02 0.03 0.05 0.07 0.08 0.09 0.10 0.10 0.08 0.07 0.10 0.12 0.10 0.09 0.07 0.03 0.02 0.04 0.04 0.02 0.01 0.01 0.00 0.00 0.00 0.00 0.01 0.01 0.02 0.04 0.06 0.08
0.00 0.00 0.00 0.00 0.00 0.00 0.00 0.00 0.00 0.00 0.00 0.00 0.00 0.00 0.00 0.00 0.00 0.00 0.00 0.00 0.01 0.01 0.02 0.03 0.04 0.05 0.06 0.08 0.10 0.14 0.16 0.10 0.06 0.07 0.10 0.12 0.11 0.10 0.06 0.05 0.04 0.02 0.03 0.02 0.01 0.00 0.00 0.00 0.01 0.02 0.02 0.03 0.04 0.05
0.00 0.00 0.00 0.00 0.00 0.00 0.00 0.00 0.00 0.00 0.00 0.00 0.00 0.01 0.01 0.01 0.01 0.00 0.00 0.00 0.01 0.02 0.01 0.02 0.03 0.05 0.06 0.08 0.09 0.10 0.11 0.08 0.07 0.08 0.10 0.10 0.09 0.07 0.06 0.07 0.07 0.05 0.04 0.03 0.02 0.01 0.00 0.00 0.01 0.01 0.02 0.02 0.03 0.04
0.01 0.00 0.00 0.00 0.00 0.00 0.00 0.00 0.00 0.00 0.00 0.01 0.00 0.01 0.01 0.01 0.00 0.00 0.00 0.00 0.01 0.01 0.02 0.03 0.04 0.06 0.06 0.06 0.07 0.07 0.07 0.06 0.05 0.05 0.06 0.06 0.05 0.05 0.05 0.05 0.06 0.06 0.05 0.03 0.02 0.02 0.01 0.00 0.00 0.01 0.01 0.02 0.03 0.04

GFSWCAN_prec_precacc12_198.txt.gz
Total_Precipitation_Accumulation
0.05 0.03 0.02 0.02 0.05 0.04 0.01 0.00 0.00 0.01 0.02 0.09 0.30 0.39 0.39 0.42 0.51 0.45 0.76 0.24 0.11 0.33 0.57 0.28 0.15 0.16 0.15 0.09 0.23 0.35 0.22 0.32 0.27 0.20 0.23 0.29 0.19 0.12 0.06 0.04 0.02 0.05 0.07 0.10 0.11 0.10 0.03 0.00 0.00 0.00 0.00 0.00 0.00 0.00
0.02 0.02 0.02 0.03 0.04 0.03 0.00 0.00 0.00 0.01 0.02 0.06 0.17 0.27 0.31 0.31 0.42 0.23 0.54 0.39 0.11 0.18 0.44 0.23 0.18 0.10 0.04 0.02 0.02 0.06 0.03 0.06 0.06 0.09 0.11 0.09 0.05 0.04 0.03 0.08 0.04 0.02 0.00 0.01 0.01 0.01 0.01 0.00 0.00 0.00 0.00 0.00 0.00 0.00
0.02 0.03 0.03 0.04 0.03 0.03 0.01 0.01 0.01 0.02 0.02 0.03 0.10 0.18 0.24 0.31 0.42 0.35 0.43 0.32 0.16 0.22 0.46 0.34 0.20 0.07 0.04 0.04 0.01 0.07 0.06 0.01 0.00 0.00 0.00 0.01 0.03 0.02 0.04 0.05 0.02 0.01 0.00 0.01 0.01 0.01 0.00 0.00 0.00 0.00 0.00 0.00 0.00 0.00
0.02 0.02 0.03 0.03 0.03 0.03 0.01 0.01 0.01 0.02 0.02 0.02 0.04 0.11 0.13 0.17 0.26 0.23 0.35 0.28 0.15 0.18 0.58 0.74 0.23 0.11 0.05 0.03 0.06 0.06 0.02 0.01 0.00 0.00 0.00 0.01 0.03 0.03 0.03 0.02 0.01 0.01 0.01 0.00 0.00 0.00 0.00 0.00 0.00 0.00 0.00 0.00 0.00 0.00
0.02 0.02 0.03 0.04 0.04 0.04 0.02 0.01 0.01 0.01 0.01 0.01 0.01 0.03 0.04 0.06 0.09 0.07 0.12 0.12 0.04 0.05 0.33 0.66 0.35 0.26 0.15 0.10 0.06 0.05 0.05 0.03 0.01 0.01 0.01 0.01 0.01 0.01 0.01 0.01 0.02 0.01 0.01 0.00 0.00 0.00 0.00 0.00 0.00 0.00 0.00 0.00 0.00 0.00
0.03 0.02 0.03 0.04 0.03 0.03 0.02 0.01 0.01 0.01 0.01 0.01 0.01 0.01 0.01 0.02 0.04 0.05 0.12 0.09 0.04 0.02 0.03 0.27 0.51 0.42 0.24 0.15 0.12 0.11 0.09 0.05 0.03 0.03 0.02 0.00 0.00 0.00 0.00 0.01 0.00 0.00 0.00 0.00 0.00 0.00 0.00 0.00 0.00 0.00 0.00 0.00 0.00 0.00
0.04 0.03 0.05 0.07 0.06 0.03 0.02 0.02 0.02 0.02 0.01 0.01 0.02 0.01 0.00 0.01 0.02 0.01 0.08 0.07 0.01 0.01 0.01 0.12 0.31 0.41 0.24 0.12 0.08 0.05 0.04 0.05 0.04 0.03 0.01 0.01 0.01 0.00 0.00 0.00 0.00 0.00 0.00 0.00 0.00 0.00 0.00 0.00 0.00 0.00 0.00 0.00 0.00 0.00
0.02 0.04 0.07 0.10 0.06 0.04 0.04 0.02 0.02 0.03 0.03 0.03 0.02 0.00 0.00 0.00 0.00 0.00 0.00 0.00 0.00 0.00 0.00 0.04 0.24 0.19 0.07 0.06 0.09 0.04 0.03 0.02 0.02 0.03 0.02 0.01 0.02 0.02 0.01 0.00 0.00 0.00 0.00 0.00 0.00 0.00 0.00 0.00 0.00 0.00 0.00 0.00 0.01 0.01
0.01 0.03 0.04 0.04 0.03 0.03 0.02 0.02 0.04 0.03 0.02 0.01 0.00 0.00 0.01 0.02 0.01 0.01 0.00 0.00 0.00 0.00 0.01 0.01 0.05 0.14 0.07 0.07 0.09 0.08 0.08 0.06 0.04 0.03 0.02 0.01 0.01 0.01 0.00 0.00 0.00 0.00 0.00 0.00 0.00 0.00 0.00 0.01 0.02 0.02 0.02 0.03 0.03 0.02
0.01 0.01 0.02 0.02 0.02 0.02 0.02 0.02 0.01 0.00 0.00 0.00 0.00 0.01 0.02 0.01 0.00 0.00 0.00 0.00 0.00 0.00 0.01 0.07 0.07 0.07 0.06 0.05 0.06 0.06 0.08 0.08 0.03 0.01 0.02 0.01 0.00 0.00 0.00 0.00 0.00 0.00 0.00 0.00 0.00 0.01 0.01 0.01 0.02 0.01 0.01 0.00 0.00 0.00
0.06 0.07 0.07 0.09 0.12 0.11 0.09 0.06 0.02 0.00 0.01 0.02 0.01 0.03 0.02 0.00 0.02 0.01 0.00 0.00 0.00 0.01 0.02 0.08 0.09 0.05 0.05 0.10 0.07 0.08 0.07 0.06 0.04 0.04 0.02 0.01 0.01 0.01 0.00 0.00 0.00 0.00 0.00 0.01 0.01 0.01 0.00 0.00 0.00 0.01 0.00 0.00 0.01 0.03
0.03 0.06 0.15 0.17 0.18 0.18 0.14 0.10 0.04 0.03 0.02 0.01 0.00 0.01 0.01 0.01 0.01 0.00 0.00 0.00 0.02 0.06 0.02 0.06 0.09 0.10 0.10 0.11 0.11 0.05 0.03 0.01 0.06 0.05 0.02 0.01 0.04 0.02 0.00 0.00 0.00 0.00 0.00 0.00 0.00 0.00 0.00 0.01 0.02 0.06 0.04 0.03 0.01 0.02
0.03 0.03 0.04 0.09 0.12 0.12 0.11 0.06 0.00 0.00 0.00 0.03 0.02 0.00 0.00 0.00 0.01 0.05 0.07 0.05 0.11 0.05 0.05 0.05 0.05 0.07 0.09 0.08 0.06 0.03 0.01 0.03 0.04 0.03 0.01 0.04 0.02 0.00 0.00 0.01 0.00 0.00 0.00 0.01 0.01 0.02 0.02 0.02 0.02 0.02 0.02 0.02 0.01 0.01
0.01 0.00 0.01 0.02 0.08 0.06 0.01 0.00 0.00 0.00 0.05 0.07 0.03 0.01 0.03 0.07 0.15 0.14 0.19 0.16 0.10 0.04 0.03 0.05 0.06 0.07 0.11 0.07 0.03 0.02 0.03 0.04 0.03 0.02 0.05 0.07 0.00 0.00 0.00 0.00 0.00 0.00 0.00 0.00 0.00 0.00 0.00 0.00 0.00 0.00 0.00 0.00 0.00 0.00
0.00 0.00 0.00 0.00 0.00 0.00 0.00 0.00 0.00 0.01 0.07 0.04 0.02 0.06 0.11 0.06 0.03 0.01 0.04 0.03 0.03 0.03 0.04 0.05 0.04 0.05 0.04 0.02 0.02 0.02 0.01 0.01 0.02 0.10 0.16 0.13 0.00 0.00 0.00 0.00 0.00 0.00 0.00 0.00 0.00 0.00 0.00 0.00 0.00 0.00 0.00 0.00 0.00 0.00
0.00 0.00 0.00 0.00 0.00 0.00 0.00 0.00 0.00 0.00 0.01 0.02 0.02 0.03 0.01 0.01 0.00 0.00 0.01 0.01 0.01 0.03 0.07 0.09 0.05 0.04 0.01 0.01 0.00 0.01 0.02 0.04 0.16 0.13 0.04 0.07 0.03 0.00 0.00 0.00 0.00 0.00 0.00 0.00 0.00 0.00 0.00 0.00 0.00 0.00 0.00 0.00 0.00 0.00
0.00 0.00 0.00 0.00 0.00 0.00 0.00 0.00 0.02 0.00 0.00 0.01 0.01 0.00 0.00 0.01 0.01 0.00 0.01 0.03 0.01 0.02 0.11 0.14 0.06 0.05 0.05 0.02 0.01 0.01 0.04 0.13 0.05 0.01 0.00 0.00 0.00 0.00 0.00 0.00 0.00 0.00 0.00 0.00 0.00 0.00 0.00 0.00 0.00 0.00 0.00 0.00 0.00 0.00
0.00 0.00 0.00 0.00 0.00 0.00 0.00 0.01 0.03 0.00 0.00 0.00 0.01 0.01 0.00 0.00 0.00 0.00 0.00 0.02 0.03 0.03 0.10 0.16 0.16 0.10 0.07 0.04 0.04 0.10 0.10 0.01 0.00 0.00 0.00 0.00 0.00 0.00 0.00 0.00 0.00 0.00 0.00 0.00 0.00 0.00 0.00 0.00 0.00 0.00 0.00 0.00 0.00 0.00
0.00 0.00 0.00 0.00 0.00 0.00 0.00 0.00 0.00 0.00 0.01 0.01 0.00 0.00 0.00 0.00 0.00 0.00 0.00 0.00 0.02 0.04 0.12 0.14 0.07 0.04 0.09 0.11 0.14 0.07 0.02 0.00 0.00 0.00 0.00 0.00 0.00 0.00 0.00 0.00 0.00 0.00 0.00 0.00 0.00 0.00 0.00 0.00 0.00 0.00 0.00 0.00 0.00 0.00
0.00 0.00 0.00 0.00 0.00 0.00 0.00 0.01 0.02 0.01 0.02 0.04 0.02 0.01 0.01 0.01 0.01 0.01 0.01 0.01 0.00 0.00 0.02 0.02 0.01 0.05 0.10 0.16 0.13 0.07 0.01 0.00 0.00 0.00 0.01 0.00 0.00 0.00 0.00 0.00 0.00 0.00 0.00 0.00 0.00 0.00 0.00 0.00 0.00 0.00 0.00 0.00 0.00 0.00
0.01 0.00 0.00 0.00 0.00 0.00 0.00 0.02 0.03 0.01 0.01 0.02 0.04 0.04 0.03 0.02 0.02 0.01 0.01 0.02 0.03 0.01 0.00 0.00 0.02 0.04 0.03 0.04 0.03 0.01 0.00 0.00 0.00 0.01 0.01 0.00 0.00 0.00 0.00 0.00 0.01 0.00 0.01 0.01 0.01 0.00 0.00 0.00 0.00 0.00 0.00 0.00 0.00 0.00
0.02 0.01 0.01 0.01 0.00 0.00 0.00 0.00 0.01 0.06 0.05 0.02 0.04 0.06 0.06 0.03 0.02 0.02 0.04 0.05 0.03 0.00 0.00 0.00 0.02 0.04 0.00 0.01 0.01 0.01 0.00 0.00 0.00 0.01 0.03 0.02 0.00 0.00 0.00 0.00 0.00 0.01 0.01 0.01 0.01 0.02 0.01 0.01 0.00 0.00 0.00 0.00 0.00 0.00
0.00 0.01 0.01 0.02 0.01 0.00 0.00 0.00 0.00 0.01 0.05 0.03 0.05 0.07 0.05 0.06 0.05 0.03 0.04 0.02 0.01 0.00 0.00 0.00 0.00 0.00 0.00 0.00 0.00 0.00 0.00 0.00 0.00 0.00 0.02 0.03 0.02 0.01 0.01 0.00 0.00 0.00 0.00 0.00 0.01 0.02 0.02 0.01 0.00 0.01 0.00 0.00 0.00 0.00
0.00 0.01 0.00 0.00 0.01 0.01 0.00 0.00 0.01 0.01 0.03 0.04 0.05 0.07 0.06 0.10 0.15 0.15 0.07 0.02 0.03 0.01 0.00 0.00 0.01 0.02 0.02 0.01 0.00 0.00 0.00 0.00 0.00 0.00 0.01 0.02 0.03 0.04 0.04 0.01 0.00 0.00 0.00 0.00 0.01 0.02 0.01 0.01 0.01 0.01 0.01 0.00 0.00 0.00
0.00 0.00 0.00 0.00 0.00 0.01 0.01 0.00 0.00 0.01 0.02 0.01 0.03 0.04 0.07 0.10 0.15 0.12 0.06 0.09 0.10 0.05 0.03 0.02 0.03 0.04 0.05 0.04 0.02 0.01 0.00 0.00 0.01 0.01 0.00 0.01 0.03 0.03 0.05 0.05 0.03 0.02 0.01 0.04 0.04 0.03 0.02 0.02 0.02 0.01 0.00 0.00 0.00 0.00
0.01 0.00 0.00 0.00 0.00 0.00 0.01 0.01 0.01 0.01 0.01 0.01 0.02 0.01 0.01 0.03 0.06 0.08 0.08 0.08 0.07 0.05 0.04 0.05 0.05 0.05 0.07 0.09 0.11 0.12 0.07 0.02 0.01 0.02 0.02 0.01 0.01 0.05 0.02 0.02 0.04 0.03 0.01 0.02 0.03 0.05 0.05 0.05 0.04 0.02 0.01 0.01 0.01 0.00
0.00 0.00 0.00 0.00 0.00 0.00 0.00 0.00 0.00 0.00 0.01 0.01 0.01 0.01 0.01 0.03 0.05 0.04 0.01 0.01 0.01 0.01 0.00 0.00 0.01 0.02 0.06 0.06 0.07 0.11 0.08 0.08 0.11 0.11 0.06 0.02 0.00 0.01 0.03 0.02 0.02 0.02 0.00 0.00 0.01 0.01 0.03 0.05 0.06 0.04 0.03 0.03 0.01 0.00
0.00 0.00 0.00 0.00 0.00 0.00 0.00 0.00 0.00 0.00 0.00 0.00 0.00 0.00 0.00 0.01 0.02 0.01 0.01 0.00 0.00 0.00 0.00 0.00 0.01 0.01 0.03 0.04 0.04 0.05 0.06 0.07 0.10 0.10 0.08 0.10 0.06 0.03 0.01 0.01 0.00 0.00 0.00 0.00 0.00 0.01 0.02 0.03 0.04 0.05 0.06 0.06 0.04 0.02
0.00 0.00 0.00 0.00 0.00 0.00 0.00 0.00 0.00 0.00 0.00 0.00 0.00 0.00 0.00 0.00 0.00 0.00 0.00 0.00 0.00 0.00 0.00 0.01 0.01 0.02 0.03 0.04 0.04 0.04 0.05 0.07 0.11 0.10 0.07 0.06 0.07 0.05 0.03 0.03 0.03 0.02 0.01 0.01 0.00 0.00 0.01 0.02 0.02 0.02 0.03 0.05 0.06 0.07
0.00 0.00 0.00 0.00 0.00 0.00 0.00 0.00 0.00 0.00 0.00 0.00 0.00 0.00 0.00 0.00 0.00 0.00 0.00 0.00 0.00 0.01 0.01 0.01 0.02 0.03 0.05 0.06 0.07 0.08 0.07 0.07 0.10 0.13 0.12 0.11 0.09 0.04 0.04 0.06 0.07 0.05 0.03 0.02 0.01 0.00 0.00 0.01 0.01 0.02 0.02 0.03 0.05 0.07
0.00 0.00 0.00 0.00 0.00 0.00 0.00 0.00 0.00 0.00 0.00 0.00 0.00 0.00 0.00 0.00 0.00 0.00 0.00 0.00 0.01 0.01 0.01 0.01 0.02 0.01 0.03 0.04 0.07 0.11 0.14 0.09 0.07 0.08 0.12 0.14 0.12 0.11 0.10 0.10 0.09 0.07 0.07 0.07 0.05 0.03 0.01 0.01 0.01 0.01 0.02 0.02 0.02 0.03
0.00 0.00 0.00 0.00 0.00 0.00 0.00 0.00 0.00 0.00 0.00 0.00 0.00 0.00 0.01 0.01 0.01 0.00 0.00 0.00 0.01 0.01 0.01 0.01 0.02 0.02 0.03 0.05 0.05 0.06 0.09 0.07 0.06 0.08 0.10 0.12 0.12 0.11 0.12 0.16 0.16 0.14 0.11 0.09 0.07 0.05 0.04 0.03 0.02 0.02 0.02 0.02 0.03 0.04
0.01 0.01 0.01 0.00 0.00 0.00 0.01 0.00 0.00 0.00 0.00 0.00 0.00 0.00 0.01 0.01 0.00 0.00 0.00 0.00 0.00 0.00 0.01 0.01 0.02 0.04 0.03 0.03 0.04 0.05 0.06 0.05 0.04 0.05 0.06 0.07 0.07 0.07 0.08 0.09 0.10 0.11 0.10 0.09 0.07 0.06 0.05 0.04 0.03 0.02 0.02 0.02 0.02 0.03

GFSWCAN_prec_precacc12_201.txt.gz
Total_Precipitation_Accumulation
0.05 0.06 0.06 0.03 0.06 0.05 0.03 0.01 0.00 0.01 0.02 0.11 0.36 0.49 0.51 0.50 0.60 0.58 0.87 0.32 0.30 0.43 0.47 0.21 0.15 0.16 0.16 0.11 0.25 0.43 0.31 0.45 0.47 0.39 0.43 0.47 0.33 0.20 0.07 0.04 0.02 0.05 0.09 0.17 0.20 0.19 0.06 0.00 0.00 0.00 0.00 0.00 0.00 0.00
0.04 0.06 0.04 0.03 0.03 0.04 0.00 0.00 0.00 0.02 0.02 0.07 0.23 0.36 0.40 0.38 0.51 0.28 0.60 0.58 0.42 0.39 0.46 0.22 0.18 0.10 0.05 0.04 0.03 0.07 0.10 0.13 0.14 0.18 0.19 0.19 0.12 0.07 0.03 0.08 0.04 0.02 0.00 0.01 0.02 0.03 0.01 0.00 0.00 0.00 0.00 0.00 0.00 0.00
0.04 0.05 0.03 0.02 0.01 0.03 0.01 0.01 0.01 0.02 0.02 0.04 0.15 0.26 0.28 0.40 0.56 0.43 0.52 0.69 0.75 0.61 0.52 0.37 0.22 0.10 0.07 0.05 0.02 0.07 0.06 0.02 0.01 0.01 0.01 0.02 0.04 0.02 0.04 0.05 0.02 0.01 0.00 0.01 0.02 0.01 0.00 0.00 0.00 0.00 0.00 0.00 0.00 0.00
0.02 0.03 0.04 0.02 0.02 0.03 0.01 0.01 0.01 0.01 0.01 0.01 0.05 0.14 0.16 0.25 0.48 0.40 0.41 0.40 0.30 0.26 0.67 0.85 0.26 0.17 0.09 0.06 0.14 0.10 0.03 0.01 0.01 0.00 0.01 0.05 0.05 0.04 0.03 0.02 0.01 0.01 0.01 0.00 0.02 0.02 0.01 0.00 0.00 0.00 0.00 0.00 0.00 0.00
0.02 0.02 0.04 0.05 0.03 0.03 0.01 0.01 0.00 0.00 0.00 0.00 0.01 0.03 0.07 0.09 0.24 0.35 0.22 0.16 0.12 0.05 0.42 0.84 0.44 0.32 0.19 0.12 0.13 0.18 0.15 0.06 0.03 0.03 0.05 0.04 0.02 0.03 0.05 0.06 0.06 0.02 0.01 0.00 0.03 0.01 0.00 0.00 0.00 0.00 0.00 0.00 0.00 0.00
0.03 0.02 0.03 0.03 0.02 0.01 0.01 0.01 0.01 0.00 0.00 0.00 0.00 0.00 0.02 0.05 0.05 0.19 0.33 0.23 0.09 0.03 0.05 0.39 0.74 0.62 0.33 0.22 0.20 0.19 0.30 0.23 0.13 0.11 0.06 0.03 0.01 0.01 0.04 0.07 0.02 0.00 0.00 0.00 0.00 0.00 0.00 0.00 0.00 0.00 0.00 0.00 0.00 0.00
0.04 0.03 0.03 0.02 0.01 0.01 0.02 0.01 0.01 0.01 0.00 0.00 0.00 0.00 0.00 0.01 0.01 0.03 0.21 0.28 0.14 0.04 0.05 0.23 0.49 0.62 0.46 0.29 0.25 0.21 0.17 0.17 0.14 0.11 0.10 0.05 0.03 0.02 0.02 0.01 0.00 0.00 0.00 0.00 0.00 0.00 0.00 0.00 0.00 0.00 0.00 0.00 0.00 0.00
0.02 0.04 0.03 0.03 0.02 0.01 0.02 0.01 0.01 0.01 0.01 0.00 0.00 0.00 0.00 0.00 0.00 0.01 0.00 0.01 0.03 0.03 0.02 0.09 0.37 0.31 0.15 0.11 0.15 0.13 0.11 0.06 0.04 0.04 0.04 0.03 0.03 0.03 0.01 0.00 0.00 0.00 0.00 0.00 0.00 0.00 0.00 0.00 0.00 0.00 0.00 0.00 0.00 0.01
0.01 0.03 0.03 0.01 0.01 0.01 0.01 0.01 0.01 0.00 0.00 0.00 0.00 0.00 0.00 0.00 0.00 0.00 0.00 0.00 0.00 0.01 0.02 0.03 0.10 0.22 0.11 0.06 0.06 0.04 0.03 0.03 0.02 0.03 0.02 0.02 0.02 0.02 0.00 0.00 0.00 0.00 0.00 0.00 0.00 0.00 0.00 0.00 0.00 0.01 0.01 0.02 0.02 0.02
0.01 0.01 0.01 0.01 0.01 0.00 0.00 0.00 0.00 0.00 0.00 0.00 0.00 0.00 0.00 0.00 0.00 0.00 0.00 0.00 0.00 0.01 0.04 0.11 0.05 0.10 0.09 0.06 0.06 0.07 0.06 0.06 0.06 0.05 0.02 0.02 0.00 0.00 0.00 0.00 0.00 0.00 0.00 0.00 0.00 0.00 0.00 0.00 0.00 0.00 0.01 0.00 0.00 0.00
0.05 0.06 0.03 0.03 0.03 0.01 0.00 0.00 0.00 0.00 0.01 0.01 0.00 0.00 0.00 0.00 0.01 0.00 0.00 0.00 0.00 0.02 0.06 0.15 0.10 0.07 0.06 0.05 0.04 0.05 0.05 0.05 0.03 0.03 0.01 0.01 0.01 0.01 0.00 0.00 0.00 0.00 0.00 0.00 0.00 0.00 0.00 0.00 0.00 0.00 0.00 0.00 0.00 0.02
0.02 0.06 0.12 0.08 0.05 0.03 0.00 0.00 0.00 0.02 0.02 0.01 0.00 0.00 0.00 0.00 0.00 0.00 0.00 0.00 0.02 0.05 0.02 0.06 0.07 0.07 0.08 0.08 0.06 0.04 0.02 0.01 0.04 0.03 0.01 0.00 0.02 0.02 0.00 0.00 0.00 0.00 0.00 0.00 0.00 0.00 0.00 0.00 0.00 0.01 0.01 0.01 0.01 0.01
0.01 0.02 0.03 0.09 0.09 0.05 0.01 0.00 0.00 0.00 0.00 0.03 0.02 0.00 0.00 0.00 0.01 0.05 0.07 0.04 0.08 0.03 0.05 0.05 0.04 0.04 0.06 0.04 0.03 0.03 0.01 0.02 0.03 0.02 0.01 0.02 0.01 0.00 0.00 0.00 0.00 0.00 0.00 0.00 0.00 0.00 0.00 0.00 0.00 0.01 0.01 0.02 0.01 0.01
0.00 0.00 0.01 0.02 0.07 0.06 0.00 0.00 0.00 0.00 0.04 0.06 0.03 0.01 0.03 0.07 0.13 0.12 0.16 0.12 0.08 0.03 0.03 0.04 0.04 0.04 0.07 0.04 0.02 0.01 0.02 0.03 0.02 0.01 0.01 0.03 0.00 0.00 0.00 0.00 0.00 0.00 0.00 0.00 0.00 0.00 0.00 0.00 0.00 0.00 0.00 0.00 0.00 0.00
0.00 0.00 0.00 0.00 0.00 0.00 0.00 0.00 0.00 0.01 0.07 0.04 0.02 0.05 0.11 0.05 0.02 0.01 0.03 0.03 0.03 0.03 0.04 0.04 0.03 0.03 0.03 0.01 0.02 0.01 0.00 0.00 0.00 0.04 0.09 0.12 0.00 0.00 0.00 0.00 0.00 0.00 0.00 0.00 0.00 0.00 0.00 0.00 0.00 0.00 0.00 0.00 0.00 0.00
0.00 0.00 0.00 0.00 0.00 0.00 0.00 0.00 0.00 0.00 0.01 0.02 0.02 0.03 0.01 0.01 0.00 0.00 0.00 0.01 0.01 0.03 0.05 0.05 0.03 0.02 0.01 0.01 0.00 0.00 0.01 0.02 0.11 0.08 0.03 0.07 0.03 0.00 0.00 0.00 0.00 0.00 0.00 0.00 0.00 0.00 0.00 0.00 0.00 0.00 0.00 0.00 0.00 0.00
0.00 0.00 0.00 0.00 0.00 0.00 0.00 0.00 0.02 0.00 0.00 0.01 0.01 0.00 0.00 0.00 0.00 0.00 0.01 0.03 0.01 0.02 0.09 0.09 0.03 0.03 0.03 0.01 0.00 0.01 0.03 0.08 0.04 0.01 0.00 0.00 0.00 0.00 0.00 0.00 0.00 0.00 0.00 0.00 0.00 0.00 0.00 0.00 0.00 0.00 0.00 0.00 0.00 0.00
0.00 0.00 0.00 0.00 0.00 0.00 0.00 0.01 0.03 0.00 0.00 0.00 0.01 0.00 0.00 0.00 0.00 0.00 0.00 0.02 0.02 0.02 0.07 0.12 0.11 0.07 0.06 0.03 0.03 0.08 0.08 0.01 0.00 0.00 0.00 0.00 0.00 0.00 0.00 0.00 0.00 0.00 0.00 0.00 0.00 0.00 0.00 0.00 0.00 0.00 0.00 0.00 0.00 0.00
0.00 0.00 0.00 0.00 0.00 0.00 0.00 0.00 0.00 0.00 0.00 0.00 0.00 0.00 0.00 0.00 0.00 0.00 0.00 0.00 0.02 0.03 0.09 0.11 0.05 0.04 0.08 0.09 0.11 0.06 0.02 0.00 0.00 0.00 0.00 0.00 0.00 0.00 0.00 0.00 0.00 0.00 0.00 0.00 0.00 0.00 0.00 0.00 0.00 0.00 0.00 0.00 0.00 0.00
0.00 0.00 0.00 0.00 0.00 0.00 0.00 0.01 0.01 0.00 0.01 0.03 0.01 0.01 0.00 0.00 0.01 0.00 0.01 0.00 0.00 0.00 0.01 0.01 0.01 0.04 0.08 0.13 0.12 0.07 0.01 0.00 0.00 0.00 0.00 0.00 0.00 0.00 0.00 0.00 0.00 0.00 0.00 0.00 0.00 0.00 0.00 0.00 0.00 0.00 0.00 0.00 0.00 0.00
0.00 0.00 0.00 0.00 0.00 0.00 0.00 0.02 0.03 0.00 0.01 0.01 0.03 0.04 0.02 0.01 0.01 0.01 0.01 0.02 0.02 0.00 0.00 0.00 0.00 0.03 0.03 0.04 0.03 0.01 0.00 0.00 0.00 0.01 0.00 0.00 0.00 0.00 0.00 0.00 0.01 0.00 0.00 0.00 0.00 0.00 0.00 0.00 0.00 0.00 0.00 0.00 0.00 0.00
0.02 0.00 0.00 0.01 0.00 0.00 0.00 0.00 0.01 0.06 0.04 0.02 0.03 0.06 0.05 0.02 0.01 0.01 0.02 0.03 0.01 0.00 0.00 0.00 0.02 0.04 0.00 0.01 0.01 0.01 0.00 0.00 0.00 0.00 0.00 0.00 0.00 0.00 0.00 0.00 0.00 0.00 0.01 0.00 0.00 0.01 0.01 0.01 0.00 0.00 0.00 0.00 0.00 0.00
0.00 0.01 0.01 0.02 0.02 0.00 0.00 0.00 0.00 0.01 0.04 0.03 0.03 0.05 0.04 0.05 0.05 0.03 0.03 0.01 0.00 0.00 0.00 0.00 0.00 0.00 0.00 0.00 0.00 0.00 0.00 0.00 0.00 0.00 0.01 0.02 0.02 0.01 0.01 0.00 0.00 0.00 0.00 0.00 0.00 0.01 0.02 0.01 0.00 0.00 0.00 0.00 0.00 0.00
0.00 0.01 0.01 0.00 0.01 0.01 0.00 0.00 0.00 0.00 0.01 0.02 0.04 0.05 0.05 0.08 0.13 0.15 0.08 0.02 0.03 0.01 0.00 0.00 0.00 0.00 0.01 0.01 0.00 0.00 0.00 0.00 0.00 0.00 0.00 0.01 0.02 0.04 0.04 0.01 0.00 0.00 0.00 0.00 0.00 0.02 0.01 0.01 0.01 0.01 0.02 0.01 0.01 0.00
0.01 0.00 0.00 0.01 0.01 0.02 0.01 0.00 0.00 0.00 0.01 0.00 0.01 0.01 0.03 0.05 0.10 0.09 0.06 0.09 0.11 0.05 0.03 0.02 0.02 0.04 0.05 0.05 0.04 0.02 0.00 0.00 0.01 0.01 0.00 0.00 0.03 0.03 0.05 0.06 0.03 0.02 0.01 0.03 0.04 0.03 0.03 0.03 0.05 0.03 0.02 0.02 0.01 0.00
0.02 0.00 0.00 0.00 0.01 0.01 0.01 0.01 0.01 0.00 0.00 0.00 0.01 0.00 0.00 0.01 0.02 0.03 0.06 0.08 0.07 0.05 0.04 0.04 0.04 0.04 0.05 0.07 0.09 0.10 0.06 0.02 0.01 0.02 0.02 0.01 0.02 0.05 0.02 0.03 0.06 0.05 0.02 0.02 0.04 0.07 0.08 0.08 0.07 0.06 0.05 0.03 0.01 0.01
0.01 0.00 0.00 0.00 0.00 0.00 0.00 0.00 0.00 0.00 0.00 0.00 0.01 0.01 0.01 0.01 0.00 0.01 0.01 0.01 0.00 0.00 0.00 0.00 0.00 0.01 0.04 0.05 0.05 0.08 0.06 0.07 0.12 0.13 0.08 0.02 0.01 0.03 0.06 0.02 0.01 0.02 0.01 0.03 0.03 0.04 0.05 0.07 0.08 0.05 0.04 0.04 0.01 0.00
0.01 0.00 0.00 0.00 0.00 0.00 0.00 0.01 0.02 0.00 0.00 0.00 0.00 0.00 0.00 0.00 0.01 0.00 0.00 0.00 0.00 0.00 0.00 0.00 0.00 0.01 0.02 0.02 0.02 0.03 0.04 0.06 0.10 0.10 0.09 0.11 0.08 0.05 0.05 0.05 0.02 0.01 0.01 0.02 0.01 0.02 0.02 0.03 0.04 0.06 0.07 0.05 0.03 0.01
0.00 0.00 0.00 0.01 0.00 0.01 0.01 0.00 0.00 0.00 0.00 0.00 0.00 0.00 0.00 0.00 0.00 0.00 0.00 0.00 0.00 0.00 0.00 0.00 0.00 0.00 0.01 0.02 0.02 0.02 0.03 0.05 0.09 0.09 0.06 0.06 0.08 0.06 0.05 0.06 0.06 0.05 0.05 0.04 0.02 0.01 0.02 0.03 0.03 0.02 0.04 0.05 0.05 0.05
0.00 0.00 0.00 0.00 0.01 0.01 0.01 0.01 0.00 0.00 0.00 0.00 0.00 0.00 0.00 0.00 0.00 0.00 0.00 0.00 0.00 0.00 0.00 0.00 0.01 0.01 0.01 0.02 0.04 0.05 0.04 0.05 0.08 0.10 0.09 0.09 0.07 0.04 0.05 0.07 0.08 0.07 0.06 0.06 0.05 0.03 0.03 0.03 0.06 0.07 0.06 0.05 0.04 0.06
0.02 0.02 0.01 0.00 0.01 0.00 0.01 0.01 0.01 0.00 0.00 0.00 0.00 0.00 0.00 0.00 0.00 0.00 0.00 0.00 0.00 0.01 0.01 0.01 0.01 0.01 0.01 0.01 0.03 0.07 0.10 0.07 0.05 0.07 0.11 0.12 0.11 0.11 0.09 0.11 0.11 0.10 0.13 0.12 0.11 0.08 0.05 0.03 0.03 0.04 0.05 0.05 0.03 0.04
0.03 0.05 0.04 0.01 0.01 0.00 0.00 0.00 0.00 0.00 0.00 0.00 0.00 0.00 0.00 0.00 0.00 0.00 0.00 0.00 0.00 0.00 0.00 0.01 0.01 0.01 0.02 0.02 0.03 0.04 0.06 0.05 0.04 0.07 0.09 0.11 0.12 0.11 0.12 0.17 0.19 0.19 0.19 0.17 0.14 0.12 0.11 0.08 0.06 0.04 0.03 0.03 0.03 0.03
0.03 0.02 0.03 0.02 0.01 0.01 0.02 0.00 0.00 0.00 0.00 0.00 0.00 0.01 0.00 0.00 0.00 0.00 0.00 0.00 0.00 0.00 0.00 0.01 0.01 0.02 0.02 0.02 0.02 0.03 0.03 0.03 0.03 0.04 0.05 0.07 0.07 0.07 0.08 0.10 0.14 0.16 0.17 0.15 0.13 0.11 0.11 0.09 0.08 0.07 0.06 0.06 0.04 0.03

GFSWCAN_prec_precacc12_204.txt.gz
Total_Precipitation_Accumulation
0.06 0.08 0.07 0.04 0.05 0.04 0.03 0.01 0.01 0.01 0.03 0.09 0.29 0.40 0.47 0.48 0.57 0.63 0.92 0.30 0.58 0.48 0.15 0.03 0.04 0.03 0.04 0.06 0.15 0.32 0.28 0.47 0.56 0.53 0.67 0.63 0.49 0.28 0.10 0.05 0.02 0.06 0.10 0.22 0.30 0.27 0.08 0.00 0.00 0.00 0.00 0.00 0.00 0.00
0.05 0.07 0.06 0.03 0.02 0.03 0.01 0.01 0.01 0.01 0.03 0.08 0.23 0.35 0.39 0.39 0.55 0.35 0.66 0.59 0.61 0.62 0.38 0.07 0.04 0.03 0.02 0.03 0.02 0.07 0.11 0.18 0.23 0.31 0.31 0.34 0.24 0.15 0.11 0.12 0.05 0.02 0.00 0.01 0.03 0.04 0.01 0.00 0.00 0.00 0.00 0.00 0.00 0.00
0.04 0.06 0.04 0.03 0.01 0.01 0.01 0.01 0.00 0.02 0.02 0.04 0.15 0.26 0.28 0.43 0.61 0.51 0.60 0.86 1.25 1.20 0.62 0.31 0.18 0.09 0.06 0.06 0.03 0.09 0.07 0.04 0.13 0.09 0.08 0.05 0.11 0.08 0.07 0.06 0.04 0.03 0.01 0.01 0.02 0.01 0.00 0.00 0.00 0.00 0.00 0.00 0.00 0.00
0.03 0.04 0.04 0.03 0.01 0.01 0.01 0.01 0.00 0.01 0.01 0.01 0.05 0.15 0.16 0.28 0.55 0.52 0.47 0.57 0.69 0.48 0.73 0.87 0.28 0.17 0.10 0.07 0.17 0.11 0.03 0.02 0.03 0.12 0.19 0.24 0.13 0.05 0.04 0.02 0.01 0.02 0.01 0.01 0.02 0.02 0.01 0.00 0.00 0.00 0.00 0.00 0.00 0.00
0.02 0.03 0.04 0.05 0.03 0.01 0.01 0.00 0.00 0.00 0.00 0.00 0.01 0.03 0.07 0.09 0.27 0.43 0.26 0.22 0.24 0.12 0.44 0.85 0.49 0.33 0.21 0.16 0.17 0.25 0.17 0.07 0.04 0.05 0.15 0.17 0.13 0.12 0.09 0.07 0.07 0.02 0.01 0.00 0.03 0.01 0.00 0.00 0.00 0.00 0.00 0.00 0.00 0.00
0.03 0.02 0.03 0.03 0.01 0.00 0.01 0.00 0.00 0.00 0.00 0.00 0.00 0.00 0.02 0.05 0.06 0.26 0.39 0.31 0.19 0.04 0.07 0.45 0.80 0.68 0.35 0.26 0.29 0.35 0.54 0.37 0.16 0.12 0.10 0.06 0.01 0.02 0.06 0.07 0.02 0.00 0.00 0.00 0.00 0.00 0.00 0.00 0.00 0.00 0.00 0.00 0.00 0.00
0.03 0.02 0.02 0.01 0.01 0.01 0.01 0.00 0.00 0.00 0.00 0.00 0.00 0.00 0.00 0.01 0.02 0.06 0.29 0.37 0.25 0.07 0.08 0.24 0.53 0.72 0.58 0.38 0.49 0.53 0.42 0.47 0.39 0.26 0.17 0.10 0.04 0.03 0.04 0.01 0.00 0.00 0.00 0.01 0.00 0.00 0.00 0.00 0.00 0.00 0.00 0.00 0.00 0.00
0.02 0.03 0.02 0.01 0.01 0.00 0.00 0.00 0.00 0.00 0.00 0.00 0.00 0.00 0.00 0.00 0.00 0.02 0.01 0.04 0.10 0.07 0.04 0.10 0.38 0.36 0.27 0.27 0.30 0.31 0.26 0.14 0.15 0.18 0.16 0.13 0.13 0.07 0.02 0.00 0.00 0.00 0.00 0.00 0.00 0.00 0.00 0.00 0.00 0.00 0.00 0.00 0.00 0.00
0.00 0.01 0.01 0.00 0.00 0.00 0.00 0.00 0.00 0.00 0.00 0.00 0.00 0.00 0.00 0.00 0.00 0.00 0.00 0.01 0.01 0.03 0.07 0.08 0.13 0.28 0.18 0.09 0.10 0.06 0.02 0.04 0.04 0.06 0.08 0.07 0.07 0.02 0.00 0.00 0.00 0.00 0.00 0.00 0.00 0.00 0.00 0.00 0.00 0.00 0.00 0.00 0.00 0.00
0.00 0.00 0.01 0.00 0.00 0.00 0.00 0.00 0.00 0.00 0.00 0.00 0.00 0.00 0.00 0.00 0.00 0.00 0.00 0.00 0.00 0.02 0.08 0.18 0.07 0.16 0.17 0.09 0.07 0.08 0.04 0.05 0.10 0.12 0.05 0.04 0.01 0.00 0.00 0.00 0.00 0.00 0.00 0.00 0.00 0.00 0.00 0.00 0.00 0.00 0.00 0.00 0.00 0.00
0.02 0.01 0.01 0.01 0.00 0.00 0.00 0.00 0.00 0.00 0.00 0.00 0.00 0.00 0.00 0.00 0.00 0.00 0.00 0.00 0.00 0.04 0.11 0.21 0.15 0.10 0.09 0.04 0.04 0.02 0.03 0.02 0.04 0.06 0.03 0.03 0.01 0.00 0.00 0.00 0.00 0.00 0.00 0.00 0.00 0.00 0.00 0.00 0.00 0.00 0.00 0.00 0.00 0.00
0.01 0.02 0.03 0.01 0.00 0.00 0.00 0.00 0.00 0.00 0.00 0.00 0.00 0.00 0.00 0.00 0.00 0.00 0.00 0.00 0.01 0.04 0.03 0.06 0.06 0.04 0.03 0.02 0.02 0.01 0.00 0.00 0.03 0.01 0.00 0.00 0.01 0.01 0.00 0.00 0.00 0.00 0.00 0.00 0.00 0.00 0.00 0.00 0.00 0.00 0.00 0.00 0.00 0.00
0.00 0.01 0.01 0.03 0.00 0.00 0.00 0.00 0.00 0.00 0.00 0.01 0.01 0.00 0.00 0.00 0.00 0.04 0.07 0.02 0.03 0.01 0.03 0.02 0.01 0.01 0.02 0.01 0.01 0.01 0.00 0.01 0.01 0.00 0.00 0.00 0.00 0.00 0.00 0.00 0.00 0.00 0.00 0.00 0.00 0.00 0.00 0.00 0.00 0.00 0.00 0.01 0.00 0.00
0.00 0.00 0.00 0.01 0.00 0.00 0.00 0.00 0.00 0.00 0.01 0.01 0.01 0.01 0.01 0.03 0.07 0.06 0.09 0.05 0.03 0.01 0.02 0.02 0.01 0.02 0.02 0.00 0.00 0.00 0.01 0.02 0.01 0.00 0.00 0.00 0.00 0.00 0.00 0.00 0.00 0.00 0.00 0.00 0.00 0.00 0.00 0.00 0.00 0.00 0.00 0.00 0.00 0.00
0.00 0.00 0.00 0.00 0.00 0.00 0.00 0.00 0.00 0.00 0.02 0.01 0.01 0.04 0.08 0.02 0.00 0.00 0.02 0.02 0.02 0.02 0.02 0.02 0.01 0.01 0.01 0.00 0.01 0.00 0.00 0.00 0.00 0.01 0.02 0.05 0.00 0.00 0.00 0.00 0.00 0.00 0.00 0.00 0.00 0.00 0.00 0.00 0.00 0.00 0.00 0.00 0.00 0.00
0.00 0.00 0.00 0.00 0.00 0.00 0.00 0.00 0.00 0.00 0.00 0.01 0.01 0.02 0.00 0.00 0.00 0.00 0.00 0.01 0.01 0.02 0.02 0.01 0.01 0.01 0.00 0.00 0.00 0.00 0.00 0.01 0.03 0.01 0.01 0.06 0.03 0.00 0.00 0.00 0.00 0.00 0.00 0.00 0.00 0.00 0.00 0.00 0.00 0.00 0.00 0.00 0.00 0.00
0.00 0.00 0.00 0.00 0.00 0.00 0.00 0.00 0.01 0.00 0.00 0.00 0.00 0.00 0.00 0.00 0.00 0.00 0.00 0.02 0.00 0.01 0.05 0.04 0.01 0.01 0.01 0.00 0.00 0.00 0.01 0.03 0.02 0.01 0.00 0.00 0.00 0.00 0.00 0.00 0.00 0.00 0.00 0.00 0.00 0.00 0.00 0.00 0.00 0.00 0.00 0.00 0.00 0.00
0.00 0.00 0.00 0.00 0.00 0.00 0.00 0.00 0.01 0.00 0.00 0.00 0.00 0.00 0.00 0.00 0.00 0.00 0.00 0.01 0.01 0.01 0.02 0.05 0.05 0.03 0.03 0.03 0.02 0.03 0.02 0.00 0.00 0.00 0.00 0.00 0.00 0.00 0.00 0.00 0.00 0.00 0.00 0.00 0.00 0.00 0.00 0.00 0.00 0.00 0.00 0.00 0.00 0.00
0.00 0.00 0.00 0.00 0.00 0.00 0.00 0.00 0.00 0.00 0.00 0.00 0.00 0.00 0.00 0.00 0.00 0.00 0.00 0.00 0.00 0.01 0.03 0.03 0.03 0.02 0.06 0.06 0.04 0.04 0.01 0.00 0.00 0.00 0.00 0.00 0.00 0.00 0.00 0.00 0.00 0.00 0.00 0.00 0.00 0.00 0.00 0.00 0.00 0.00 0.00 0.00 0.00 0.00
0.00 0.00 0.00 0.00 0.00 0.00 0.00 0.00 0.00 0.00 0.00 0.00 0.00 0.00 0.00 0.00 0.00 0.00 0.00 0.00 0.00 0.00 0.00 0.00 0.00 0.02 0.03 0.04 0.05 0.07 0.01 0.00 0.00 0.00 0.00 0.00 0.00 0.00 0.00 0.00 0.00 0.00 0.00 0.00 0.00 0.00 0.00 0.00 0.00 0.00 0.00 0.00 0.00 0.00
0.00 0.00 0.00 0.00 0.00 0.00 0.00 0.01 0.01 0.00 0.00 0.00 0.01 0.02 0.01 0.00 0.00 0.00 0.00 0.01 0.01 0.00 0.00 0.00 0.00 0.00 0.01 0.02 0.02 0.01 0.00 0.00 0.00 0.00 0.00 0.00 0.00 0.00 0.00 0.00 0.00 0.00 0.00 0.00 0.00 0.00 0.00 0.00 0.00 0.00 0.00 0.00 0.00 0.00
0.01 0.00 0.01 0.03 0.01 0.00 0.00 0.00 0.00 0.02 0.02 0.01 0.01 0.04 0.02 0.01 0.01 0.00 0.00 0.01 0.00 0.00 0.00 0.00 0.00 0.01 0.00 0.01 0.01 0.01 0.00 0.00 0.00 0.00 0.00 0.00 0.00 0.00 0.00 0.00 0.00 0.00 0.00 0.00 0.00 0.00 0.00 0.00 0.00 0.00 0.00 0.00 0.00 0.00
0.00 0.00 0.01 0.05 0.07 0.02 0.00 0.00 0.00 0.00 0.02 0.02 0.02 0.04 0.02 0.02 0.03 0.03 0.01 0.00 0.00 0.00 0.00 0.00 0.00 0.00 0.00 0.00 0.00 0.00 0.00 0.00 0.00 0.00 0.00 0.00 0.00 0.00 0.00 0.00 0.00 0.00 0.00 0.00 0.00 0.00 0.00 0.00 0.00 0.00 0.00 0.00 0.00 0.00
0.00 0.01 0.02 0.01 0.02 0.01 0.00 0.00 0.00 0.00 0.00 0.01 0.03 0.03 0.02 0.03 0.08 0.12 0.07 0.02 0.02 0.01 0.00 0.00 0.00 0.00 0.00 0.00 0.00 0.00 0.00 0.00 0.00 0.00 0.00 0.00 0.01 0.01 0.02 0.01 0.00 0.00 0.00 0.00 0.00 0.00 0.00 0.00 0.01 0.01 0.02 0.01 0.01 0.00
0.01 0.00 0.02 0.02 0.01 0.03 0.01 0.00 0.00 0.00 0.00 0.00 0.00 0.00 0.00 0.01 0.04 0.05 0.04 0.05 0.08 0.05 0.03 0.02 0.02 0.03 0.04 0.04 0.03 0.02 0.00 0.00 0.00 0.00 0.00 0.00 0.00 0.01 0.05 0.06 0.03 0.02 0.01 0.03 0.04 0.03 0.03 0.04 0.05 0.03 0.02 0.02 0.01 0.00
0.03 0.00 0.00 0.01 0.01 0.02 0.01 0.00 0.00 0.00 0.00 0.00 0.00 0.00 0.00 0.00 0.00 0.00 0.01 0.02 0.03 0.03 0.03 0.03 0.03 0.02 0.04 0.07 0.07 0.09 0.07 0.02 0.01 0.02 0.01 0.01 0.02 0.04 0.02 0.03 0.05 0.05 0.02 0.02 0.03 0.06 0.07 0.08 0.09 0.09 0.07 0.03 0.02 0.01
0.01 0.01 0.01 0.00 0.01 0.02 0.01 0.00 0.00 0.01 0.01 0.00 0.00 0.00 0.00 0.00 0.00 0.00 0.01 0.01 0.01 0.01 0.01 0.00 0.00 0.00 0.01 0.02 0.03 0.06 0.05 0.05 0.08 0.10 0.08 0.02 0.01 0.03 0.07 0.04 0.02 0.01 0.02 0.06 0.07 0.05 0.05 0.07 0.08 0.07 0.07 0.06 0.04 0.01
0.02 0.01 0.01 0.01 0.02 0.03 0.01 0.02 0.03 0.03 0.02 0.00 0.00 0.00 0.00 0.00 0.00 0.00 0.00 0.01 0.01 0.00 0.00 0.00 0.00 0.00 0.00 0.01 0.01 0.01 0.02 0.04 0.06 0.07 0.07 0.10 0.08 0.06 0.08 0.08 0.07 0.06 0.04 0.02 0.03 0.05 0.06 0.05 0.05 0.06 0.07 0.05 0.04 0.02
0.00 0.00 0.00 0.01 0.02 0.05 0.06 0.03 0.06 0.05 0.00 0.00 0.00 0.00 0.00 0.00 0.00 0.00 0.00 0.00 0.00 0.00 0.00 0.00 0.00 0.00 0.00 0.00 0.01 0.01 0.01 0.02 0.05 0.05 0.04 0.04 0.06 0.06 0.05 0.06 0.08 0.07 0.06 0.06 0.05 0.04 0.05 0.06 0.04 0.03 0.04 0.05 0.04 0.04
0.00 0.00 0.00 0.00 0.01 0.04 0.06 0.06 0.04 0.02 0.00 0.00 0.00 0.00 0.00 0.00 0.00 0.00 0.00 0.00 0.00 0.00 0.00 0.00 0.00 0.00 0.00 0.00 0.00 0.01 0.01 0.02 0.04 0.06 0.05 0.05 0.04 0.03 0.05 0.07 0.08 0.08 0.07 0.08 0.08 0.10 0.09 0.07 0.07 0.08 0.09 0.09 0.10 0.11
0.03 0.03 0.02 0.01 0.02 0.02 0.04 0.04 0.04 0.04 0.03 0.02 0.02 0.02 0.01 0.01 0.00 0.00 0.00 0.00 0.00 0.00 0.00 0.00 0.01 0.00 0.00 0.00 0.00 0.01 0.05 0.05 0.03 0.05 0.08 0.08 0.07 0.08 0.08 0.11 0.11 0.10 0.13 0.14 0.13 0.12 0.11 0.09 0.06 0.08 0.11 0.11 0.09 0.07
0.05 0.08 0.07 0.04 0.03 0.01 0.00 0.01 0.01 0.02 0.02 0.00 0.00 0.01 0.01 0.00 0.01 0.00 0.00 0.00 0.00 0.00 0.00 0.00 0.00 0.00 0.01 0.01 0.01 0.01 0.03 0.02 0.01 0.03 0.05 0.06 0.07 0.08 0.10 0.16 0.19 0.19 0.19 0.18 0.16 0.15 0.16 0.13 0.10 0.09 0.08 0.09 0.11 0.12
0.04 0.04 0.05 0.04 0.03 0.03 0.03 0.01 0.00 0.00 0.00 0.00 0.01 0.01 0.01 0.00 0.01 0.01 0.01 0.00 0.00 0.00 0.00 0.00 0.00 0.00 0.01 0.01 0.01 0.01 0.01 0.01 0.01 0.02 0.03 0.04 0.04 0.05 0.07 0.09 0.13 0.16 0.18 0.18 0.16 0.14 0.14 0.13 0.11 0.10 0.10 0.09 0.09 0.08

GFSWCAN_prec_precacc12_207.txt.gz
Total_Precipitation_Accumulation
0.06 0.08 0.07 0.03 0.02 0.01 0.03 0.02 0.02 0.01 0.03 0.07 0.19 0.24 0.29 0.35 0.43 0.63 0.95 0.31 0.84 0.89 0.22 0.02 0.03 0.02 0.02 0.04 0.08 0.18 0.18 0.33 0.46 0.46 0.62 0.58 0.49 0.27 0.14 0.08 0.07 0.22 0.27 0.32 0.31 0.30 0.10 0.00 0.00 0.00 0.01 0.00 0.00 0.00
0.05 0.08 0.06 0.02 0.01 0.02 0.01 0.01 0.01 0.01 0.03 0.07 0.16 0.22 0.21 0.25 0.45 0.39 0.72 0.57 0.85 1.12 0.54 0.04 0.01 0.01 0.01 0.02 0.01 0.04 0.09 0.15 0.20 0.34 0.31 0.34 0.24 0.16 0.12 0.13 0.06 0.03 0.05 0.07 0.04 0.04 0.01 0.00 0.00 0.00 0.00 0.00 0.00 0.00
0.04 0.06 0.05 0.02 0.01 0.00 0.01 0.01 0.00 0.02 0.02 0.03 0.13 0.19 0.17 0.28 0.42 0.47 0.54 0.81 1.39 1.53 0.69 0.20 0.06 0.03 0.05 0.06 0.03 0.06 0.03 0.04 0.14 0.14 0.19 0.16 0.11 0.08 0.07 0.06 0.04 0.03 0.01 0.01 0.02 0.01 0.00 0.00 0.00 0.00 0.00 0.00 0.00 0.00
0.03 0.03 0.04 0.02 0.01 0.00 0.01 0.01 0.00 0.01 0.01 0.01 0.05 0.13 0.14 0.23 0.48 0.50 0.45 0.49 0.70 0.54 0.62 0.58 0.15 0.10 0.06 0.06 0.17 0.10 0.02 0.02 0.04 0.15 0.28 0.42 0.31 0.11 0.07 0.05 0.04 0.04 0.03 0.02 0.04 0.02 0.01 0.00 0.00 0.00 0.00 0.00 0.00 0.00
0.02 0.02 0.03 0.02 0.01 0.00 0.00 0.00 0.00 0.00 0.00 0.00 0.01 0.03 0.06 0.09 0.26 0.46 0.35 0.27 0.31 0.17 0.39 0.64 0.42 0.31 0.18 0.14 0.17 0.27 0.17 0.08 0.08 0.11 0.21 0.29 0.26 0.28 0.20 0.13 0.11 0.04 0.04 0.07 0.08 0.01 0.00 0.00 0.00 0.00 0.00 0.00 0.00 0.00
0.01 0.01 0.01 0.01 0.01 0.00 0.00 0.00 0.00 0.00 0.00 0.00 0.00 0.00 0.02 0.05 0.06 0.30 0.45 0.34 0.21 0.11 0.18 0.48 0.73 0.69 0.33 0.27 0.30 0.39 0.69 0.59 0.27 0.19 0.15 0.09 0.03 0.03 0.12 0.13 0.02 0.00 0.00 0.00 0.00 0.00 0.00 0.00 0.00 0.00 0.00 0.00 0.00 0.00
0.01 0.00 0.00 0.00 0.00 0.00 0.00 0.00 0.00 0.00 0.00 0.00 0.00 0.00 0.00 0.01 0.02 0.07 0.30 0.37 0.29 0.11 0.15 0.26 0.47 0.68 0.71 0.45 0.52 0.60 0.55 0.74 0.70 0.45 0.26 0.14 0.05 0.04 0.05 0.01 0.00 0.00 0.00 0.01 0.00 0.00 0.00 0.00 0.00 0.00 0.00 0.00 0.00 0.00
0.00 0.01 0.00 0.00 0.00 0.00 0.00 0.00 0.00 0.00 0.00 0.00 0.00 0.00 0.00 0.00 0.00 0.02 0.01 0.06 0.16 0.19 0.14 0.16 0.32 0.35 0.38 0.44 0.47 0.44 0.44 0.38 0.38 0.39 0.29 0.18 0.16 0.10 0.04 0.00 0.00 0.00 0.00 0.00 0.00 0.00 0.00 0.00 0.00 0.00 0.00 0.00 0.00 0.00
0.00 0.00 0.00 0.00 0.00 0.00 0.00 0.00 0.00 0.00 0.00 0.00 0.00 0.00 0.00 0.00 0.00 0.00 0.00 0.01 0.01 0.07 0.12 0.12 0.15 0.29 0.22 0.16 0.20 0.16 0.14 0.20 0.14 0.14 0.16 0.14 0.14 0.05 0.01 0.00 0.00 0.00 0.00 0.00 0.00 0.00 0.00 0.00 0.00 0.00 0.00 0.00 0.00 0.00
0.00 0.00 0.00 0.00 0.00 0.00 0.00 0.00 0.00 0.00 0.00 0.00 0.00 0.00 0.00 0.00 0.00 0.00 0.00 0.00 0.00 0.02 0.09 0.22 0.11 0.18 0.20 0.12 0.11 0.14 0.13 0.14 0.16 0.17 0.08 0.06 0.02 0.00 0.00 0.00 0.00 0.00 0.00 0.00 0.00 0.01 0.00 0.00 0.00 0.00 0.00 0.00 0.00 0.00
0.00 0.00 0.00 0.00 0.00 0.00 0.00 0.00 0.00 0.00 0.00 0.00 0.00 0.00 0.00 0.00 0.00 0.00 0.00 0.00 0.00 0.04 0.13 0.25 0.20 0.14 0.10 0.05 0.04 0.02 0.04 0.04 0.06 0.08 0.03 0.04 0.02 0.01 0.01 0.02 0.01 0.00 0.00 0.02 0.01 0.00 0.00 0.00 0.00 0.00 0.00 0.00 0.00 0.00
0.00 0.00 0.00 0.00 0.00 0.00 0.00 0.00 0.00 0.00 0.00 0.00 0.00 0.00 0.00 0.00 0.00 0.00 0.00 0.00 0.01 0.04 0.03 0.07 0.08 0.07 0.03 0.01 0.01 0.00 0.01 0.00 0.03 0.01 0.00 0.00 0.00 0.00 0.01 0.01 0.00 0.00 0.00 0.00 0.00 0.00 0.00 0.00 0.00 0.00 0.00 0.00 0.00 0.00
0.00 0.00 0.00 0.00 0.00 0.00 0.00 0.00 0.00 0.00 0.00 0.00 0.00 0.00 0.00 0.00 0.00 0.02 0.02 0.01 0.03 0.03 0.02 0.00 0.00 0.00 0.00 0.00 0.00 0.00 0.00 0.00 0.00 0.00 0.00 0.00 0.00 0.00 0.00 0.00 0.00 0.00 0.00 0.00 0.00 0.00 0.00 0.00 0.00 0.00 0.00 0.00 0.00 0.00
0.00 0.00 0.00 0.00 0.00 0.00 0.00 0.00 0.00 0.00 0.00 0.00 0.00 0.00 0.00 0.00 0.00 0.01 0.02 0.02 0.01 0.00 0.00 0.00 0.00 0.00 0.00 0.00 0.00 0.00 0.00 0.00 0.00 0.00 0.00 0.00 0.00 0.00 0.00 0.00 0.00 0.00 0.00 0.00 0.00 0.00 0.00 0.00 0.00 0.00 0.00 0.00 0.00 0.00
0.01 0.00 0.00 0.00 0.01 0.00 0.00 0.00 0.00 0.00 0.00 0.00 0.00 0.00 0.01 0.00 0.00 0.00 0.00 0.00 0.00 0.00 0.00 0.00 0.00 0.00 0.00 0.00 0.00 0.00 0.00 0.00 0.00 0.00 0.00 0.00 0.00 0.00 0.00 0.00 0.00 0.00 0.00 0.00 0.00 0.00 0.00 0.00 0.00 0.00 0.00 0.00 0.00 0.00
0.01 0.00 0.00 0.00 0.00 0.00 0.00 0.00 0.00 0.00 0.00 0.00 0.00 0.01 0.00 0.00 0.00 0.00 0.00 0.00 0.00 0.01 0.00 0.00 0.00 0.00 0.00 0.00 0.00 0.00 0.00 0.00 0.00 0.00 0.00 0.00 0.00 0.00 0.00 0.00 0.00 0.00 0.00 0.00 0.00 0.00 0.00 0.00 0.00 0.00 0.00 0.00 0.00 0.00
0.01 0.00 0.00 0.00 0.00 0.00 0.00 0.00 0.00 0.00 0.00 0.00 0.00 0.00 0.00 0.00 0.00 0.00 0.00 0.00 0.00 0.01 0.01 0.00 0.00 0.00 0.00 0.00 0.00 0.00 0.00 0.00 0.00 0.00 0.00 0.00 0.00 0.00 0.00 0.00 0.00 0.00 0.00 0.00 0.00 0.00 0.00 0.00 0.00 0.00 0.00 0.00 0.00 0.00
0.01 0.00 0.00 0.00 0.00 0.00 0.00 0.00 0.00 0.00 0.00 0.00 0.00 0.00 0.00 0.00 0.00 0.00 0.00 0.00 0.00 0.00 0.01 0.01 0.01 0.00 0.00 0.01 0.00 0.00 0.00 0.00 0.00 0.00 0.00 0.00 0.00 0.00 0.00 0.00 0.00 0.00 0.00 0.00 0.00 0.00 0.00 0.00 0.00 0.00 0.00 0.00 0.00 0.00
0.01 0.01 0.01 0.00 0.00 0.00 0.00 0.00 0.00 0.00 0.00 0.00 0.00 0.00 0.00 0.00 0.00 0.00 0.00 0.00 0.00 0.00 0.00 0.00 0.00 0.00 0.02 0.02 0.01 0.01 0.00 0.00 0.00 0.00 0.00 0.00 0.00 0.00 0.00 0.00 0.00 0.00 0.00 0.00 0.00 0.00 0.00 0.00 0.00 0.00 0.00 0.00 0.00 0.00
0.02 0.01 0.01 0.02 0.00 0.00 0.00 0.00 0.00 0.00 0.00 0.00 0.00 0.00 0.00 0.00 0.00 0.00 0.00 0.00 0.00 0.00 0.00 0.00 0.00 0.01 0.00 0.00 0.00 0.02 0.01 0.00 0.00 0.00 0.00 0.00 0.00 0.00 0.00 0.00 0.00 0.00 0.00 0.00 0.00 0.00 0.00 0.00 0.00 0.00 0.00 0.00 0.00 0.00
0.02 0.00 0.00 0.01 0.00 0.00 0.00 0.00 0.00 0.00 0.00 0.00 0.00 0.00 0.00 0.00 0.00 0.00 0.00 0.00 0.00 0.00 0.00 0.00 0.00 0.00 0.00 0.00 0.00 0.00 0.00 0.00 0.00 0.00 0.00 0.00 0.00 0.00 0.00 0.00 0.00 0.00 0.00 0.00 0.00 0.00 0.00 0.00 0.00 0.00 0.00 0.00 0.00 0.00
0.03 0.00 0.01 0.06 0.03 0.01 0.00 0.00 0.00 0.00 0.00 0.00 0.00 0.02 0.01 0.00 0.00 0.00 0.00 0.00 0.00 0.00 0.00 0.00 0.00 0.00 0.00 0.01 0.01 0.01 0.00 0.00 0.00 0.00 0.00 0.00 0.00 0.00 0.00 0.00 0.00 0.00 0.00 0.00 0.00 0.00 0.00 0.00 0.00 0.00 0.00 0.00 0.00 0.00
0.03 0.01 0.03 0.09 0.17 0.05 0.00 0.00 0.00 0.00 0.02 0.01 0.01 0.03 0.01 0.00 0.01 0.02 0.02 0.00 0.00 0.00 0.00 0.00 0.00 0.00 0.00 0.00 0.00 0.00 0.00 0.00 0.00 0.00 0.00 0.00 0.00 0.00 0.00 0.00 0.00 0.00 0.00 0.00 0.00 0.00 0.00 0.00 0.00 0.00 0.00 0.00 0.00 0.00
0.05 0.04 0.04 0.02 0.06 0.07 0.04 0.00 0.00 0.00 0.00 0.01 0.03 0.03 0.01 0.00 0.03 0.07 0.05 0.02 0.01 0.00 0.00 0.00 0.00 0.00 0.01 0.01 0.00 0.00 0.00 0.00 0.00 0.00 0.00 0.00 0.00 0.00 0.00 0.00 0.00 0.00 0.00 0.00 0.00 0.00 0.00 0.00 0.00 0.01 0.02 0.01 0.01 0.00
0.06 0.03 0.04 0.04 0.03 0.05 0.03 0.01 0.00 0.01 0.00 0.00 0.00 0.00 0.00 0.00 0.04 0.03 0.02 0.02 0.02 0.02 0.02 0.02 0.02 0.03 0.04 0.04 0.04 0.03 0.01 0.00 0.00 0.01 0.01 0.00 0.00 0.00 0.03 0.04 0.03 0.02 0.01 0.03 0.04 0.03 0.02 0.03 0.05 0.03 0.02 0.02 0.01 0.00
0.07 0.01 0.00 0.01 0.02 0.02 0.02 0.00 0.00 0.00 0.00 0.01 0.01 0.00 0.00 0.00 0.00 0.01 0.01 0.01 0.01 0.02 0.02 0.02 0.02 0.02 0.05 0.05 0.05 0.06 0.06 0.03 0.02 0.01 0.01 0.01 0.01 0.01 0.01 0.03 0.05 0.05 0.03 0.02 0.04 0.06 0.06 0.07 0.08 0.09 0.07 0.03 0.02 0.01
0.05 0.03 0.02 0.00 0.02 0.06 0.06 0.03 0.01 0.01 0.02 0.01 0.01 0.00 0.00 0.00 0.00 0.00 0.01 0.02 0.02 0.04 0.03 0.01 0.00 0.01 0.01 0.02 0.03 0.03 0.02 0.04 0.07 0.08 0.05 0.02 0.01 0.03 0.06 0.05 0.03 0.02 0.03 0.06 0.08 0.07 0.06 0.06 0.08 0.07 0.07 0.07 0.05 0.02
0.04 0.02 0.02 0.02 0.02 0.05 0.05 0.04 0.05 0.04 0.05 0.03 0.03 0.03 0.01 0.00 0.00 0.00 0.01 0.03 0.03 0.01 0.00 0.00 0.00 0.00 0.00 0.00 0.00 0.01 0.01 0.03 0.04 0.05 0.05 0.08 0.06 0.05 0.07 0.09 0.09 0.08 0.06 0.04 0.04 0.06 0.09 0.10 0.07 0.06 0.06 0.05 0.04 0.04
0.00 0.00 0.00 0.01 0.03 0.08 0.10 0.08 0.14 0.11 0.03 0.02 0.03 0.01 0.00 0.01 0.01 0.01 0.02 0.02 0.01 0.00 0.00 0.00 0.00 0.00 0.00 0.00 0.00 0.00 0.00 0.00 0.02 0.03 0.03 0.03 0.04 0.04 0.03 0.05 0.08 0.08 0.08 0.08 0.06 0.05 0.06 0.08 0.09 0.06 0.05 0.05 0.04 0.04
0.00 0.00 0.01 0.01 0.02 0.09 0.13 0.11 0.09 0.09 0.08 0.03 0.01 0.00 0.00 0.01 0.01 0.01 0.00 0.00 0.00 0.00 0.00 0.00 0.00 0.00 0.00 0.00 0.00 0.00 0.00 0.01 0.01 0.02 0.03 0.03 0.03 0.03 0.03 0.03 0.04 0.06 0.07 0.08 0.10 0.11 0.12 0.13 0.15 0.17 0.16 0.15 0.14 0.14
0.04 0.04 0.03 0.01 0.02 0.02 0.05 0.06 0.07 0.09 0.11 0.09 0.07 0.04 0.03 0.03 0.01 0.00 0.00 0.00 0.00 0.00 0.00 0.00 0.00 0.00 0.00 0.00 0.00 0.00 0.00 0.02 0.03 0.04 0.05 0.04 0.03 0.02 0.03 0.06 0.07 0.08 0.10 0.12 0.13 0.13 0.12 0.12 0.12 0.13 0.16 0.16 0.13 0.11
0.05 0.09 0.08 0.06 0.04 0.02 0.01 0.01 0.02 0.03 0.05 0.03 0.02 0.03 0.03 0.02 0.03 0.02 0.01 0.00 0.00 0.00 0.00 0.00 0.00 0.00 0.00 0.00 0.00 0.00 0.00 0.01 0.01 0.01 0.01 0.02 0.03 0.05 0.06 0.10 0.13 0.15 0.16 0.16 0.15 0.15 0.16 0.14 0.12 0.11 0.11 0.13 0.15 0.18
0.04 0.05 0.06 0.06 0.04 0.04 0.04 0.01 0.00 0.00 0.00 0.00 0.01 0.02 0.02 0.02 0.03 0.04 0.03 0.01 0.00 0.00 0.00 0.00 0.00 0.00 0.00 0.01 0.01 0.01 0.00 0.00 0.00 0.00 0.01 0.01 0.01 0.02 0.03 0.05 0.08 0.12 0.15 0.15 0.15 0.14 0.15 0.15 0.13 0.12 0.12 0.11 0.11 0.11